Regional Weather Roundup
Issued by NWS

Home | Current Version | Previous Version | Graphics & Text | Print | Product List | Glossary On
Versions: 1 2 3 4 5 6 7 8 9 10 11 12 13 14 15 16 17 18 19 20 21 22 23 24 25 26 27 28 29 30 31 32 33 34 35 36 37 38 39 40 41 42 43 44 45 46 47 48 49 50
000
ASUS43 KLOT 271808
RWRIL

ILLINOIS REGIONAL WEATHER ROUNDUP
NATIONAL WEATHER SERVICE CHICAGO/ROMEOVILLE IL
100 PM CDT TUE JUN 27 2017

NOTE: "FAIR" INDICATES FEW OR NO CLOUDS BELOW 12,000 FEET WITH NO
SIGNIFICANT WEATHER AND/OR OBSTRUCTIONS TO VISIBILITY.

* THESE STATIONS ARE NOT UNDER NWS QUALITY CONTROL. THEY ALSO MAY NOT
  REPORT WEATHER SUCH AS PRECIPITATION OR FOG.

ILZ001-002-007-009-015-016-024-271900-
NORTHWEST ILLINOIS

CITY           SKY/WX    TMP DP  RH WIND       PRES   REMARKS
MOLINE         SUNNY     73  43  33 MISG      30.11F
6HR MIN TEMP:  54; 6HR MAX TEMP:  75;

STERLING*      MOSUNNY   72  46  39 CALM      30.12F
SAVANNA*       SUNNY     72  44  36 S3        30.11F
$$

ILZ003-004-008-010-011-017-018-271900-
NORTH CENTRAL ILLINOIS

CITY           SKY/WX    TMP DP  RH WIND       PRES   REMARKS
ROCKFORD       MOSUNNY   76  47  35 W8        30.12F
6HR MIN TEMP:  52; 6HR MAX TEMP:  76;

FREEPORT*      SUNNY     71  44  38 W3        30.13F
ROCHELLE*      MOSUNNY   71  47  41 NW5       30.12F
DE KALB*       MOSUNNY   72  45  38 W3        30.12F
PERU*          SUNNY     70  44  39 N3        30.13F
$$

ILZ005-006-012>014-019>023-271900-
NORTHEAST ILLINOIS

CITY           SKY/WX    TMP DP  RH WIND       PRES   REMARKS
CHICAGO-OHARE  MOSUNNY   73  43  33 NW10      30.10F
6HR MIN TEMP:  58; 6HR MAX TEMP:  74;

CHICAGO-MIDWAY MOSUNNY   73  45  36 VRB6      30.11F
6HR MIN TEMP:  58; 6HR MAX TEMP:  74;

AURORA           N/A     73  45  36 VRB7      30.12F
6HR MIN TEMP:  54; 6HR MAX TEMP:  74;

LANSING*       PTSUNNY   71  43  36 NW7       30.13S
JOLIET*        MOSUNNY   74  46  36 SW7       30.12F
WAUKEGAN       PTSUNNY   72  48  42 NW12      30.09F
6HR MIN TEMP:  56; 6HR MAX TEMP:  73;

DUPAGE AIRPORT MOSUNNY   72  47  40 VRB7      30.11F
6HR MIN TEMP:  55; 6HR MAX TEMP:  72;

WHEELING       PTSUNNY   72  48  42 VRB7      30.12F
6HR MIN TEMP:  57; 6HR MAX TEMP:  72;

MORRIS*        MOSUNNY   73  43  34 NW3       30.11F
ROMEOVILLE*    MOSUNNY   74  42  30 NW6       30.12F
$$

LMZ740>746-271900-
SOUTHERN LAKE MICHIGAN

STATION/POSITION SKY/WX   TEMP    WIND        PRES    VSBY  WAVE
                          AIR SEA DIR/SP/G                  HT/PER
                          (F)     (DEG/KT/KT) (MB)    (MI)  (FT/S)
SOUTHERN BUOY              62 62  230/  8/ 10 1019.6F         1/ 3
WILMETTE HARBOR            64 64  130/  8/ 10   N/A           1
HARRISON CRIB              66     110/ 10/ 10   N/A
BURNHAM HARBOR             67                   N/A
CALUMET HARBOR             66      70/  8/ 10 1019.4F
BURNS HARBOR               66      40/  4/  5 1020.7F
MICHIGAN CITY              66     270/  5/  6   N/A
MICHIGAN CITY 6N           64 66   CALM  /  2   N/A           1/ 4
ST. JOSEPH                 64 69  280/ 10/ 12 1020.3          2/ 4
$$

ILZ025>027-034>036-040-047-049-050-058-095>099-271900-
WEST-CENTRAL ILLINOIS

CITY           SKY/WX    TMP DP  RH WIND       PRES   REMARKS
QUINCY         SUNNY     74  50  42 VRB5      30.12F
GALESBURG*     SUNNY     71  47  42 S3        30.14F
MACOMB*        SUNNY     73  41  31 SE3       30.15F
JACKSONVILLE*  MOSUNNY   74  49  40 CALM      30.13F
PITTSFIELD*    SUNNY     75  52  44 SE5       30.14F
$$

ILZ028>032-037-038-041>044-048-051>054-059>061-271900-
CENTRAL ILLINOIS

CITY           SKY/WX    TMP DP  RH WIND       PRES   REMARKS
PONTIAC        SUNNY     72  43  35 CALM      30.14F
BLOOMINGTON    SUNNY     71  47  42 VRB6      30.15F
DECATUR        SUNNY     73  45  36 MISG      30.15F
PEORIA         SUNNY     73  45  36 S6        30.13F
6HR MIN TEMP:  54; 6HR MAX TEMP:  74;

LACON*         SUNNY     72  44  36 CALM      30.12F
LINCOLN*       SUNNY     72  47  40 CALM      30.14F
SPRINGFIELD    SUNNY     76  48  37 VRB6      30.14F
6HR MIN TEMP:  57; 6HR MAX TEMP:  77;

TAYLORVILLE    SUNNY     73  46  38 S6        30.15S
6HR MIN TEMP:  56; 6HR MAX TEMP:  73;

$$

ILZ033-039-045-046-055>057-062-063-271900-
EAST-CENTRAL ILLINOIS

CITY           SKY/WX    TMP DP  RH WIND       PRES   REMARKS
CHAMPAIGN      MOSUNNY   73  43  33 CALM      30.15F
RANTOUL*       SUNNY     72  46  38 SE3       30.15F
MATTOON        SUNNY     73  50  44 CALM      30.15F
PARIS*         MOSUNNY   71  48  43 CALM      30.16S
$$

ILZ079-100>102-271900-
SOUTHWEST ILLINOIS

CITY           SKY/WX    TMP DP  RH WIND       PRES   REMARKS
ALTON          MOSUNNY   75  55  50 CALM      30.14F
BELLEVILLE     MOSUNNY   76  52  42 CALM      30.14F
CAHOKIA*       SUNNY     78  49  35 CALM      30.12F
SPARTA*        MOSUNNY   76  53  44 NE6       30.14F
$$

ILZ064>066-069>071-074>076-080>082-084>086-088>090-092>094-271900-
SOUTH-CENTRAL ILLINOIS

CITY           SKY/WX    TMP DP  RH WIND       PRES   REMARKS
CARBONDALE     SUNNY     76  54  46 E7        30.13F
6HR MIN TEMP:  59; 6HR MAX TEMP:  77;

CAIRO*         SUNNY     77  55  45 NE8       30.12F
EFFINGHAM*     SUNNY     74  49  40 CALM      30.17S
MARION         MOSUNNY   77  54  44 MISG      30.14F
MT. VERNON     MOSUNNY   77  56  48 VRB5      30.14F
CENTRALIA*     MOSUNNY   77  54  44 SW3       30.13F
SALEM*         MOSUNNY   76  52  42 N5        30.14F
METROPOLIS*    SUNNY     77  56  47 E6        30.13F
$$

ILZ067-068-072-073-078-083-087-091-271900-
SOUTHEAST ILLINOIS

CITY           SKY/WX    TMP DP  RH WIND       PRES   REMARKS
LAWRENCEVILLE  SUNNY     74  49  41 NE6       30.15F
FLORA*         MOSUNNY   76  50  40 NE3       30.15F
FAIRFIELD*     PTSUNNY   75  53  46 NE3       30.13F
HARRISBURG*    SUNNY     76  57  50 E5        30.14F
ROBINSON*      SUNNY     72  48  42 NE5       30.16S
CARMI*         SUNNY     76  54  45 NE3       30.14S
$$

ABBREVIATIONS USED IN REMARKS
   TC - TEMPERATURE IN CELSIUS
  WCI - WIND CHILL INDEX
   HX - HEAT INDEX
  VSB - VISIBILITY
$$




USA.gov is the U.S. government's official web portal to all federal, state and local government web resources and services.